Date String (YYYY-MM-DD hh:mm:ss) UTC,Instrument flags,Ambient pressure (hPa),Sample flow (lpm),Bypass flow (lpm),Sample temperature (°C),Ambient temperature (°C),ASC tube jacket temperature (°C),LED temperature (°C),Box temperature (°C),Sample RH (%),Span deviation,Mass concentration (μg/m³),Mass concentration (μg/m³),Mass concentration (μg/m³)
DateTimeUTC,F1_M11,P_M11,Q1_M11,Q2_M11,T1_M11,T2_M11,T3_M11,T4_M11,T5_M11,U1_M11,ZSPAN_M11,X0_M11,X2_M11,X1_M11
2022-10-10 13:00:00,,0829.0,5.00,0.00,27.4,25.8,00.0,36.2,29.3,11.4,0000.0,0008.45,0004.26,0003.95
2022-10-10 13:01:00,,0829.1,4.99,0.00,27.4,25.8,00.0,36.2,29.2,11.5,0000.0,0008.03,0004.22,0003.92
2022-10-10 13:02:00,,0829.0,4.99,0.00,27.4,25.8,00.0,36.2,29.2,11.4,0000.0,0007.99,0004.21,0003.90
2022-10-10 13:03:00,,0829.0,5.01,0.00,27.4,25.8,00.0,36.2,29.2,11.5,0000.0,0008.02,0004.22,0003.90
2022-10-10 13:04:00,,0829.2,5.00,0.00,27.4,25.8,00.0,36.2,29.2,11.5,0000.0,0007.95,0004.22,0003.91
2022-10-10 13:05:00,,0829.2,5.00,0.00,27.4,25.8,00.0,36.2,29.2,11.4,0000.0,0007.83,0004.24,0003.90
2022-10-10 13:06:00,,0829.0,5.01,0.00,27.4,25.8,00.0,36.2,29.2,11.5,0000.0,0007.84,0004.25,0003.90
2022-10-10 13:07:00,,0829.0,5.00,0.00,27.4,25.8,00.0,36.2,29.2,11.7,0000.0,0007.82,0004.25,0003.90
2022-10-10 13:08:00,,0829.0,4.99,0.00,27.4,25.7,00.0,36.2,29.2,11.7,0000.0,0007.52,0004.24,0003.91
2022-10-10 13:09:00,,0828.8,5.01,0.00,27.4,25.7,00.0,36.2,29.2,11.5,0000.0,0007.89,0004.27,0003.93
2022-10-10 13:10:00,,0828.8,5.01,0.00,27.4,25.7,00.0,36.2,29.2,11.2,0000.0,0007.90,0004.24,0003.91
2022-10-10 13:11:00,,0828.8,4.99,0.00,27.3,25.7,00.0,36.2,29.2,11.2,0000.0,0007.84,0004.21,0003.90
2022-10-10 13:12:00,,0828.7,5.02,0.00,27.3,25.7,00.0,36.2,29.2,11.2,0000.0,0007.84,0004.20,0003.89
2022-10-10 13:13:00,,0828.7,4.99,0.00,27.3,25.7,00.0,36.2,29.2,11.1,0000.0,0008.08,0004.20,0003.88
2022-10-10 13:14:00,,0828.5,5.01,0.00,27.3,25.7,00.0,36.1,29.2,11.0,0000.0,0008.11,0004.16,0003.86
2022-10-10 13:15:00,,0828.7,4.99,0.00,27.3,25.7,00.0,36.1,29.2,11.0,0000.0,0007.98,0004.13,0003.83
2022-10-10 13:16:00,,0828.7,5.01,0.00,27.3,25.7,00.0,36.1,29.2,11.0,0000.0,0007.88,0004.11,0003.82
2022-10-10 13:17:00,,0829.0,5.00,0.00,27.3,25.7,00.0,36.1,29.2,11.0,0000.0,0008.67,0004.09,0003.81
2022-10-10 13:18:00,,0829.0,5.00,0.00,27.3,25.7,00.0,36.1,29.2,11.0,0000.0,0008.97,0004.08,0003.79
2022-10-10 13:19:00,,0828.7,5.00,0.00,27.3,25.7,00.0,36.1,29.1,11.0,0000.0,0009.00,0004.06,0003.76
2022-10-10 13:20:00,,0828.9,5.00,0.00,27.3,25.7,00.0,36.1,29.2,11.0,0000.0,0008.31,0004.00,0003.71
2022-10-10 13:21:00,,0828.9,4.99,0.00,27.3,25.7,00.0,36.1,29.2,11.1,0000.0,0008.52,0004.03,0003.69
2022-10-10 13:22:00,,0828.7,5.01,0.00,27.3,25.7,00.0,36.1,29.2,11.2,0000.0,0008.72,0004.02,0003.67
2022-10-10 13:23:00,,0828.9,4.99,0.00,27.3,25.7,00.0,36.1,29.2,11.2,0000.0,0008.69,0004.01,0003.64
2022-10-10 13:24:00,,0828.8,5.01,0.00,27.3,25.7,00.0,36.1,29.2,11.1,0000.0,0008.45,0004.00,0003.63
2022-10-10 13:25:00,,0828.8,4.98,0.00,27.3,25.7,00.0,36.1,29.2,11.2,0000.0,0008.26,0003.99,0003.63
2022-10-10 13:26:00,,0828.9,5.01,0.00,27.3,25.7,00.0,36.1,29.1,11.1,0000.0,0008.28,0003.99,0003.63
2022-10-10 13:27:00,,0828.7,5.00,0.00,27.3,25.7,00.0,36.1,29.2,11.1,0000.0,0008.27,0003.97,0003.62
2022-10-10 13:28:00,,0828.6,4.99,0.00,27.3,25.7,00.0,36.1,29.2,11.0,0000.0,0007.34,0003.97,0003.62
2022-10-10 13:29:00,,0828.6,5.01,0.00,27.3,25.7,00.0,36.1,29.2,11.0,0000.0,0006.89,0003.95,0003.61
2022-10-10 13:30:00,,0828.8,4.98,0.00,27.3,25.7,00.0,36.1,29.2,11.0,0000.0,0006.84,0003.94,0003.61
2022-10-10 13:31:00,,0828.9,5.01,0.00,27.3,25.7,00.0,36.1,29.1,10.9,0000.0,0007.01,0003.98,0003.61
2022-10-10 13:32:00,,0829.0,4.98,0.00,27.3,25.7,00.0,36.1,29.1,10.9,0000.0,0006.30,0003.95,0003.60
2022-10-10 13:33:00,,0829.1,5.01,0.00,27.3,25.8,00.0,36.1,29.2,11.0,0000.0,0006.33,0003.97,0003.61
2022-10-10 13:34:00,,0829.1,5.01,0.00,27.3,25.8,00.0,36.1,29.2,10.9,0000.0,0006.45,0003.98,0003.62
2022-10-10 13:35:00,,0829.1,5.00,0.00,27.3,25.8,00.0,36.1,29.2,11.0,0000.0,0006.43,0003.95,0003.61
2022-10-10 13:36:00,,0828.8,4.99,0.00,27.3,25.8,00.0,36.1,29.2,11.0,0000.0,0006.64,0003.96,0003.61
2022-10-10 13:37:00,,0828.8,5.01,0.00,27.3,25.8,00.0,36.1,29.2,11.3,0000.0,0006.77,0003.95,0003.60
2022-10-10 13:38:00,,0828.7,5.00,0.00,27.3,25.8,00.0,36.1,29.2,11.9,0000.0,0007.12,0003.95,0003.61
2022-10-10 13:39:00,,0828.6,5.01,0.00,27.3,25.8,00.0,36.1,29.2,11.8,0000.0,0007.28,0003.94,0003.61
2022-10-10 13:40:00,,0828.8,4.99,0.00,27.3,25.8,00.0,36.1,29.2,11.8,0000.0,0007.27,0003.95,0003.61
2022-10-10 13:41:00,,0829.0,5.00,0.00,27.3,25.9,00.0,36.1,29.2,12.1,0000.0,0007.26,0003.95,0003.61
2022-10-10 13:42:00,,0828.9,5.01,0.00,27.3,25.9,00.0,36.1,29.2,11.7,0000.0,0007.14,0003.93,0003.62
2022-10-10 13:43:00,,0829.0,5.00,0.00,27.3,25.9,00.0,36.1,29.2,11.2,0000.0,0007.13,0003.92,0003.62
2022-10-10 13:44:00,,0828.9,5.00,0.00,27.3,25.9,00.0,36.1,29.3,11.0,0000.0,0006.68,0003.89,0003.62
2022-10-10 13:45:00,,0828.7,5.01,0.00,27.3,25.9,00.0,36.1,29.3,11.0,0000.0,0006.55,0003.87,0003.62
2022-10-10 13:46:00,,0828.8,4.99,0.00,27.3,25.9,00.0,36.1,29.3,10.9,0000.0,0007.37,0003.88,0003.63
2022-10-10 13:47:00,,0828.9,5.01,0.00,27.4,25.9,00.0,36.1,29.3,10.9,0000.0,0007.91,0003.88,0003.63
2022-10-10 13:48:00,,0828.9,4.98,0.00,27.4,25.9,00.0,36.1,29.3,11.0,0000.0,0007.95,0003.91,0003.63
2022-10-10 13:49:00,,0829.1,5.01,0.00,27.4,26.0,00.0,36.1,29.3,11.1,0000.0,0007.85,0003.92,0003.63
2022-10-10 13:50:00,,0829.1,5.00,0.00,27.4,26.0,00.0,36.1,29.3,11.3,0000.0,0007.61,0003.91,0003.63
2022-10-10 13:51:00,,0828.9,4.98,0.00,27.4,26.0,00.0,36.1,29.3,11.5,0000.0,0007.70,0003.93,0003.64
2022-10-10 13:52:00,,0829.1,5.00,0.00,27.4,26.0,00.0,36.1,29.3,11.3,0000.0,0007.73,0003.93,0003.64
2022-10-10 13:53:00,,0829.1,5.00,0.00,27.4,26.0,00.0,36.1,29.3,11.1,0000.0,0007.81,0003.95,0003.64
2022-10-10 13:54:00,,0829.1,4.99,0.00,27.4,26.0,00.0,36.1,29.3,11.1,0000.0,0007.86,0003.93,0003.62
2022-10-10 13:55:00,,0828.9,5.01,0.00,27.4,26.0,00.0,36.2,29.3,11.2,0000.0,0007.86,0003.92,0003.60
2022-10-10 13:56:00,,0828.9,5.00,0.00,27.4,26.0,00.0,36.2,29.3,11.1,0000.0,0007.87,0003.93,0003.59
2022-10-10 13:57:00,,0829.0,4.98,0.00,27.4,26.0,00.0,36.2,29.3,11.2,0000.0,0006.96,0003.90,0003.57
2022-10-10 13:58:00,,0829.2,5.01,0.00,27.4,26.0,00.0,36.2,29.3,11.0,0000.0,0006.29,0003.87,0003.54
2022-10-10 13:59:00,,0829.0,5.01,0.00,27.4,26.0,00.0,36.2,29.3,11.0,0000.0,0006.13,0003.84,0003.52
